Zurück zum Katalog

STARLINK-5435

AktivKommunikationVLEO
NORAD 54797·PAYLOAD·🇺🇸 United States

Gestartet Dec 17, 2022 von Cape Canaveral Space Force Station

Loading…

Nächste Überflüge (nächste 24 Stunden)

TLE

AktuellSource: CelesTrak SupGP

Epoche: Sep 14, 2026, 22:02 UTC

1 54797C 22175AR  26257.91854167  .00042796  00000+0  12646-2 0  2577
2 54797  53.1580 264.0075 0001382  92.7597  88.6833 15.34363200    17

Verfolge STARLINK-5435 in Echtzeit mit AllMySat

Download on the App Store